EHI
20 17 12 6 2 3 3 2 1 1 1 1 1 1 1 3 5 7 8 5 3 1 1 1 1 0 1 2 2 1 0 0 0 1 0 0 0 0 0 0 0 0 0
14 11 6 3 1 2 3 1 1 2 2 2 1 1 2 3 6 9 8 6 4 2 1 1 1 1 1 1 1 1 1 1 1 1 0 0 0 0 0 0 0 0 0
7 5 2 1 0 1 2 1 1 1 1 1 1 1 1 3 6 8 8 6 4 2 1 1 2 2 2 1 1 2 3 2 1 1 1 0 0 0 0 0 0 0 0
5 4 4 3 2 1 2 1 1 0 0 0 0 0 0 1 3 5 4 3 3 2 1 1 3 3 2 1 1 2 4 3 2 1 1 0 0 0 0 0 0 0 0
6 5 5 6 3 1 2 2 0 0 0 0 0 0 0 0 1 1 1 1 3 3 2 2 3 3 2 1 1 2 3 3 3 2 1 1 0 0 0 0 0 0 0
4 3 4 5 3 1 2 1 0 0 0 0 0 0 0 0 0 0 0 1 2 3 2 2 3 3 2 1 0 1 2 2 3 3 2 2 1 0 0 0 0 0 0
2 1 2 2 2 1 1 1 0 0 0 0 0 0 0 0 0 0 0 0 1 1 1 2 3 4 4 2 1 2 3 3 3 3 3 2 2 1 0 0 0 0 0
2 1 0 1 1 1 0 0 0 0 0 0 0 0 0 0 0 0 0 0 0 1 1 1 3 5 4 3 2 2 4 4 3 3 2 1 1 1 0 0 0 0 0
2 1 0 1 1 0 0 0 0 0 0 0 0 0 0 0 0 0 1 0 0 1 1 1 1 2 2 2 3 3 3 4 4 4 3 1 0 0 0 0 0 0 0
1 1 1 1 1 0 0 0 0 0 0 0 0 0 0 0 0 0 0 0 0 0 0 0 0 0 0 1 2 3 3 2 3 3 3 2 1 1 0 0 0 0 0
0 0 1 1 1 0 0 0 0 0 0 0 0 0 0 0 0 0 0 0 0 0 0 0 0 0 0 0 1 1 2 1 1 1 1 1 2 2 2 1 1 1 0
0 0 0 1 0 0 0 0 0 0 0 0 0 0 0 0 0 0 0 0 0 0 0 0 0 0 0 0 0 0 0 0 0 0 0 0 1 2 3 3 3 2 1
0 0 0 0 0 0 0 0 0 0 0 0 0 0 0 0 0 0 0 0 0 0 0 0 0 0 0 0 0 0 0 0 0 0 0 0 0 1 3 4 3 2 1
0 0 0 0 0 0 0 0 0 0 0 0 0 0 0 0 0 0 0 0 0 0 0 0 0 0 0 0 0 0 0 0 0 0 0 0 0 0 1 1 1 1 1
1 1 0 0 0 0 0 0 0 0 1 1 1 0 0 0 0 0 0 0 0 0 0 0 0 0 0 0 0 0 0 0 0 0 0 0 0 0 0 0 0 0 1
2 1 0 1 1 1 0 0 0 0 1 2 1 0 0 0 0 0 1 1 1 1 0 0 0 0 0 0 0 1 1 0 0 0 0 0 0 0 0 0 0 0 0
3 2 1 2 2 1 1 0 0 0 1 1 1 0 0 0 1 1 2 2 2 2 1 0 0 0 1 1 2 2 1 0 0 0 0 0 0 0 0 0 0 0 0
4 3 3 3 2 1 1 1 0 0 0 0 1 1 1 1 2 3 3 2 1 2 2 1 0 0 1 2 3 2 1 0 0 0 0 0 0 0 0 0 0 0 0
3 3 3 3 3 2 1 1 1 1 1 1 2 3 3 3 3 3 3 2 1 2 2 1 0 0 1 2 3 2 1 0 0 0 0 0 0 0 0 0 0 0 0
2 1 1 2 2 2 2 1 2 2 3 3 4 6 6 4 3 3 3 3 3 2 2 1 0 0 1 2 2 1 1 1 0 0 0 0 0 0 0 0 0 0 0
1 0 0 1 1 1 1 2 2 3 4 6 7 7 6 3 2 2 2 2 2 2 2 1 0 0 0 1 1 0 0 0 0 0 0 0 0 0 0 0 0 0 0
1 1 0 0 0 0 0 1 1 2 5 7 7 7 6 3 2 2 1 1 1 1 1 1 0 0 0 0 0 0 0 0 0 0 0 0 0 0 0 0 0 0 0
2 2 1 1 1 0 0 0 0 1 4 5 4 4 3 2 1 1 1 0 0 0 0 0 0 0 0 0 0 0 0 0 0 0 0 0 0 0 0 0 0 0 0
5 5 4 4 4 2 0 0 0 0 1 1 1 1 1 0 0 1 1 0 0 0 0 0 0 0 0 0 0 0 0 0 0 0 0 0 0 0 0 0 0 0 0
9 8 7 7 7 5 2 0 0 0 0 0 0 0 0 0 0 0 0 0 0 0 0 0 0 0 0 0 0 0 0 0 0 0 0 0 0 0 0 0 0 0 0
11 9 8 8 8 7 3 1 0 0 0 0 0 0 0 0 0 0 0 0 0 0 0 0 0 0 0 0 0 0 0 0 0 0 0 0 0 0 0 0 0 0 0
Wind_Speed
2 2 1 1 1 1 1 1 0 1 1 1 2 1 1 2 2 3 4 9 10 10 9 9 9 9 9 10 10 9 9 9 8 7 7 8 8 8 8 8 8 8 8
2 2 2 1 1 1 1 1 2 1 1 1 2 2 2 1 1 1 3 5 8 9 9 10 10 9 9 10 11 10 10 10 9 8 8 8 8 8 8 8 8 8 8
3 2 1 1 1 0 1 1 1 1 2 2 2 2 2 1 1 1 2 3 4 7 9 10 10 10 10 11 11 11 11 10 10 10 9 9 8 8 8 8 8 9 8
2 1 2 2 0 0 1 0 0 0 0 1 2 3 2 2 3 2 2 2 2 3 6 10 10 10 11 11 12 12 12 12 11 11 11 10 10 9 9 9 9 9 9
2 2 2 2 0 1 1 1 2 1 1 1 2 3 2 2 3 3 3 3 3 2 2 6 10 10 11 11 11 12 13 13 13 12 12 12 11 11 10 10 10 9 10
3 2 3 2 1 2 2 2 1 0 1 1 3 1 2 3 3 3 3 3 3 4 3 3 4 7 10 10 10 12 13 13 13 14 14 13 13 12 11 11 11 11 10
3 2 3 2 2 2 2 2 2 2 1 0 1 2 2 4 4 3 2 1 2 3 3 3 3 2 4 9 10 11 12 13 13 13 14 13 13 12 12 12 12 12 11
2 3 3 1 2 2 2 2 2 2 2 1 1 2 1 1 1 3 3 3 2 1 1 3 3 4 3 2 5 9 9 11 12 14 14 13 13 13 13 13 13 12 13
3 3 2 2 2 1 1 1 2 2 2 2 1 1 2 2 2 1 2 2 2 2 2 1 2 3 4 3 3 5 7 7 9 12 13 13 13 13 13 14 14 14 14
3 3 3 2 2 2 2 2 3 3 3 2 1 1 1 1 1 2 1 1 2 3 3 2 1 2 3 3 5 7 8 7 8 9 11 12 13 13 14 15 15 15 15
2 3 4 3 1 2 3 3 3 3 3 3 3 3 2 0 1 1 2 1 1 1 2 2 2 2 3 3 3 5 7 7 8 9 9 10 12 13 15 16 17 17 16
3 3 4 3 2 2 3 2 2 2 2 3 3 3 3 2 2 2 2 3 2 1 1 1 2 2 2 2 4 6 7 7 7 7 8 9 10 12 14 16 18 18 18
4 4 4 2 2 2 2 1 1 2 2 3 3 3 3 3 3 2 2 3 3 3 2 2 2 2 2 2 3 5 7 8 8 7 7 9 10 10 12 13 15 17 18
5 5 4 3 2 1 1 2 1 0 1 1 2 2 2 3 3 2 2 3 3 4 3 2 0 1 1 2 3 4 3 8 9 9 8 8 9 9 11 12 13 15 15
5 5 3 3 2 2 1 1 0 1 1 1 2 2 2 2 2 2 2 2 2 3 4 3 2 1 0 1 4 2 2 5 9 10 10 10 10 10 11 11 12 14 14
4 4 3 2 2 2 1 0 2 1 1 1 1 1 2 2 3 3 2 2 2 2 3 3 3 2 2 3 2 1 3 5 9 12 13 13 12 12 11 12 12 13 13
4 3 3 2 2 2 2 1 2 1 1 1 2 1 1 2 2 3 3 3 3 2 3 4 3 3 3 3 3 3 4 4 6 12 14 14 14 14 13 13 13 13 13
4 4 3 2 2 3 2 2 3 1 1 2 2 2 2 2 2 3 3 4 3 3 3 5 4 4 4 4 4 5 5 6 4 8 12 14 14 15 14 14 13 13 13
4 4 4 3 3 2 2 2 2 2 2 2 2 2 3 3 3 3 3 4 3 5 3 4 5 4 4 4 4 5 5 4 7 8 9 12 14 15 15 15 15 14 14
5 4 4 4 3 3 3 3 3 3 3 3 3 3 3 3 4 3 4 4 4 4 4 4 5 4 4 3 2 2 3 3 4 6 6 6 10 14 16 16 16 16 15
6 5 5 4 4 4 4 3 3 4 3 3 4 4 5 5 5 4 5 3 4 3 4 4 5 4 4 3 3 3 4 4 4 4 4 4 4 5 8 13 16 17 16
5 5 5 4 5 4 4 4 2 3 3 4 4 4 5 6 8 10 10 9 7 6 5 5 5 5 5 5 4 5 4 4 5 3 3 5 5 4 5 6 12 16 17
6 5 5 5 5 4 7 6 5 3 4 5 5 5 6 6 4 4 7 10 11 13 12 8 8 8 7 6 5 6 5 6 6 5 5 7 6 6 6 7 11 14 16
6 6 6 6 5 6 9 9 7 5 6 6 7 7 6 6 7 4 5 5 6 7 9 9 9 10 9 7 6 6 7 7 7 7 7 8 6 6 7 6 9 12 14
6 6 6 6 6 6 10 10 8 5 6 8 8 8 7 7 7 7 6 6 7 7 10 11 12 13 14 14 10 6 6 7 9 7 5 6 6 5 5 6 7 12 14
6 6 6 6 7 6 10 12 11 6 6 6 6 7 9 9 8 8 6 6 8 8 7 9 8 10 11 12 15 11 9 9 9 7 6 5 5 4 5 5 4 4 6
Wind_Direction
105 109 103 121 139 170 162 165 176 185 249 285 289 280 320 342 65 111 137 161 164 170 177 183 188 193 195 196 192 189 188 188 183 179 177 178 176 173 171 170 164 159 157
100 108 136 135 99 103 137 172 172 169 196 228 272 297 294 316 31 96 144 165 174 180 186 193 198 200 202 201 199 197 195 194 188 185 186 185 184 180 181 180 176 170 166
121 138 137 108 65 108 145 135 186 170 202 205 222 244 241 234 236 190 160 162 173 191 198 203 205 205 207 207 205 203 201 199 194 192 192 192 192 189 188 186 183 179 176
129 134 112 92 360 216 94 134 39 101 231 213 211 234 216 194 221 217 212 192 178 189 198 207 210 209 213 214 212 210 206 204 200 197 197 198 198 195 194 194 190 187 185
111 88 81 83 265 80 55 32 68 17 318 314 254 220 214 195 200 222 210 206 189 191 193 201 208 211 216 219 218 216 214 211 205 203 203 202 202 201 198 199 199 194 192
91 92 100 68 56 65 55 44 15 317 281 284 292 285 227 207 197 203 215 210 190 196 198 201 194 211 216 218 220 220 219 217 213 210 209 208 206 203 201 201 203 201 200
98 69 91 92 67 76 53 32 0 316 274 311 303 287 239 203 192 185 202 214 204 203 192 189 183 184 206 219 222 224 227 224 220 217 214 211 210 205 203 203 204 206 205
116 115 80 88 75 99 68 18 15 341 337 18 336 311 298 141 237 195 183 193 194 225 231 214 182 183 203 193 204 218 226 229 228 224 220 215 213 211 209 208 207 208 210
105 73 89 59 20 67 89 28 11 359 342 330 17 353 349 23 332 155 196 165 165 184 226 241 209 191 199 191 184 201 216 229 231 231 226 222 218 216 215 215 213 211 212
131 130 112 90 36 34 52 28 54 349 338 338 4 24 82 67 341 349 324 127 182 199 203 229 222 207 206 192 188 184 200 212 223 231 233 229 225 220 219 221 221 219 217
134 122 111 101 74 62 62 44 37 8 357 7 355 352 356 348 239 252 309 327 284 230 189 195 203 208 206 204 183 173 182 201 217 228 233 235 230 226 224 226 229 229 226
138 122 121 109 94 82 79 62 24 20 25 15 353 343 349 352 349 347 334 323 316 311 263 181 203 216 213 193 175 174 181 194 212 225 232 236 236 233 228 228 230 233 233
134 114 109 107 94 91 93 74 64 36 28 13 336 341 351 341 344 349 332 325 326 309 282 228 201 195 216 143 155 183 198 201 210 221 233 238 240 241 237 233 234 235 236
117 130 127 134 125 113 89 84 339 175 93 349 333 4 323 320 345 347 333 332 320 314 312 317 253 156 124 129 153 201 217 206 214 221 230 238 240 242 243 240 238 238 238
131 129 135 138 133 121 76 51 298 20 50 335 333 352 336 326 324 323 321 315 311 313 314 325 349 26 117 162 168 223 247 221 219 225 230 234 237 238 239 240 239 238 237
100 130 143 146 145 144 150 246 279 169 202 245 254 328 329 324 340 323 312 306 298 292 295 309 311 328 357 320 249 262 271 255 233 231 231 232 232 234 235 236 236 236 237
138 153 163 165 168 178 172 209 265 241 235 285 305 309 305 303 310 319 320 315 309 307 297 299 303 309 301 276 266 258 262 250 241 235 231 228 229 230 232 234 235 235 235
167 172 171 181 208 187 184 219 260 277 273 274 283 294 294 295 304 291 302 303 304 293 276 286 290 284 279 272 251 245 263 268 266 257 235 226 225 227 229 231 233 234 233
183 182 178 193 219 214 204 215 239 265 277 278 280 283 285 290 288 288 292 290 295 300 298 290 290 283 271 269 263 260 264 267 272 274 246 228 226 227 228 229 230 231 232
189 190 191 203 217 227 223 219 222 239 253 265 272 274 274 272 272 277 279 279 288 296 293 288 283 285 281 283 291 284 283 269 275 283 282 258 233 228 230 231 232 231 231
199 193 199 206 218 229 227 215 230 246 251 257 264 264 263 257 251 254 273 287 297 293 296 295 294 296 297 312 306 302 294 290 276 272 275 273 256 235 232 236 237 236 231
205 195 201 216 224 229 162 165 212 285 292 284 279 274 273 253 236 234 244 250 253 262 274 282 288 289 295 301 307 301 297 298 293 292 299 287 278 264 249 234 229 228 227
200 199 207 221 227 199 180 183 198 245 271 275 279 276 279 285 273 248 240 240 246 248 243 249 265 272 278 284 292 294 289 286 280 282 285 278 270 267 264 267 248 230 225
196 200 212 223 228 218 195 198 203 231 256 262 263 262 260 267 273 268 275 270 259 256 247 239 243 253 260 261 263 269 271 275 268 263 253 263 262 257 263 262 258 241 230
198 205 212 220 226 218 200 202 203 236 249 255 255 254 250 249 242 237 248 262 270 271 270 260 244 248 254 260 258 266 268 270 274 270 253 256 264 264 258 256 255 249 236
201 214 222 218 222 219 204 203 204 234 254 261 262 255 248 243 241 231 239 255 265 269 279 288 277 265 258 255 248 237 244 255 265 271 260 258 265 273 275 259 255 251 237